Weather History for Bloomington, IN

Change the Weather History Date:

Monday, December 10, 2012

  Actual Average Record
Temperature  
Mean Temperature 39 °F 33 °F  
Max Temperature 48 °F 42 °F 62 °F (1996)
Min Temperature 29 °F 25 °F 7 °F (2013)
Degree Days  
Heating Degree Days 26 32  
Month to date heating degree days 149 300  
Since 1 July heating degree days 1365 1356  
Cooling Degree Days 0 0  
Month to date cooling degree days 1 0  
Year to date cooling degree days 1310 927  
Moisture  
Dew Point 32 °F    
Average Humidity 87    
Maximum Humidity 96    
Minimum Humidity 78    
Precipitation  
Precipitation 0.00 in 0.11 in 0.54 in (2003)
Month to date precipitation 0.71 1.07  
Year to date precipitation 29.54 45.08  
Sea Level Pressure  
Sea Level Pressure 29.81 in    
Wind  
Wind Speed 9 mph (WNW)    
Max Wind Speed 16 mph    
Max Gust Speed 23 mph    
Visibility 8 miles    
Events      
T = Trace of Precipitation, MM = Missing Value Source: NWS Daily Summary

Daily Weather History Graph

Daily Weather History Graph

Search for Another Location

Airport:

Trip Planner

Search our weather history database for the weather conditions in past years. The results will help you decide how hot, cold, wet, or windy it might be!

Date:

Astronomy

Dec. 10, 2012 Rise Set
Actual Time 7:55 AM EST 5:23 PM EST
Civil Twilight 7:25 AM EST 5:53 PM EST
Nautical Twilight 6:51 AM EST 6:27 PM EST
Astronomical Twilight 6:19 AM EST 6:59 PM EST
Moon 4:38 AM EST (12/10) 3:11 PM EST (12/10)
Length of Visible Light 10h 28m
Length of Day
9h 28m
Waning Crescent, 10% of the Moon is Illuminated
Dec 10
Waning Crescent
Dec 13
New
Dec 20
First Quarter
Dec 28
Full
Jan 4
Last Quarter

Hourly Weather History & Observations

Time (EST) Temp. Windchill Dew Point Humidity Pressure Visibility Wind Dir Wind Speed Gust Speed Precip Events Conditions
12:04 AM 48.2 °F - 44.6 °F 87% 29.74 in 10.0 mi WNW 9.2 mph - N/A   Overcast
12:37 AM 44.6 °F 39.2 °F 44.6 °F 100% 29.75 in 2.5 mi WNW 10.4 mph 18.4 mph N/A   Overcast
12:53 AM 45.0 °F 38.2 °F 43.0 °F 93% 29.76 in 8.0 mi WNW 15.0 mph 19.6 mph N/A   Overcast
1:53 AM 43.0 °F 37.7 °F 41.0 °F 93% 29.77 in 9.0 mi NW 9.2 mph - N/A   Overcast
2:53 AM 42.1 °F 35.7 °F 39.0 °F 89% 29.78 in 7.0 mi WNW 11.5 mph - N/A   Overcast
3:44 AM 41.0 °F 36.4 °F 37.4 °F 87% 29.77 in 10.0 mi NW 6.9 mph 16.1 mph N/A   Overcast
3:53 AM 41.0 °F 36.4 °F 37.0 °F 86% 29.77 in 10.0 mi NW 6.9 mph - N/A   Overcast
4:53 AM 39.9 °F 34.5 °F 36.0 °F 86% 29.76 in 10.0 mi WNW 8.1 mph - N/A   Overcast
5:12 AM 39.2 °F 33.6 °F 35.6 °F 87% 29.76 in 10.0 mi WNW 8.1 mph - N/A   Overcast
5:37 AM 39.2 °F 37.0 °F 33.8 °F 81% 29.75 in 10.0 mi NW 3.5 mph - N/A   Scattered Clouds
5:53 AM 39.0 °F 35.7 °F 33.1 °F 79% 29.75 in 10.0 mi WNW 4.6 mph - N/A   Clear
6:17 AM 39.2 °F - 33.8 °F 81% 29.74 in 10.0 mi Calm Calm - N/A   Mostly Cloudy
6:53 AM 39.0 °F 35.7 °F 34.0 °F 82% 29.75 in 10.0 mi West 4.6 mph - N/A   Overcast
7:53 AM 39.0 °F 31.8 °F 34.0 °F 82% 29.77 in 10.0 mi WNW 11.5 mph - N/A   Overcast
8:30 AM 37.4 °F 31.4 °F 33.8 °F 87% 29.77 in 6.0 mi NW 8.1 mph - N/A   Overcast
8:53 AM 36.0 °F 30.3 °F 32.0 °F 86% 29.78 in 6.0 mi NW 6.9 mph - N/A   Overcast
9:15 AM 33.8 °F 27.0 °F 30.2 °F 87% 29.78 in 6.0 mi NW 8.1 mph - N/A   Overcast
9:53 AM 32.0 °F 24.2 °F 28.9 °F 88% 29.80 in 5.0 mi NW 9.2 mph 17.3 mph N/A   Overcast
10:21 AM 32.0 °F 23.0 °F 28.4 °F 87% 29.79 in 7.0 mi WNW 11.5 mph 18.4 mph N/A   Overcast
10:53 AM 32.0 °F 24.2 °F 27.0 °F 82% 29.82 in 8.0 mi NW 9.2 mph 18.4 mph N/A   Overcast
11:53 AM 30.9 °F 24.3 °F 26.1 °F 82% 29.81 in 7.0 mi WNW 6.9 mph - N/A   Overcast
12:53 PM 30.0 °F 21.7 °F 26.1 °F 85% 29.82 in 10.0 mi WNW 9.2 mph - N/A   Overcast
1:53 PM 30.0 °F 22.4 °F 25.0 °F 82% 29.81 in 9.0 mi NW 8.1 mph 18.4 mph N/A   Overcast
2:53 PM 30.0 °F 21.7 °F 26.1 °F 85% 29.81 in 7.0 mi WNW 9.2 mph - N/A   Overcast
3:53 PM 30.0 °F 21.7 °F 25.0 °F 82% 29.83 in 7.0 mi West 9.2 mph - N/A   Overcast
4:53 PM 28.9 °F 19.8 °F 25.0 °F 85% 29.86 in 7.0 mi WNW 10.4 mph - N/A   Overcast
5:53 PM 30.0 °F 22.4 °F 26.1 °F 85% 29.87 in 9.0 mi West 8.1 mph - N/A   Overcast
6:53 PM 30.0 °F 24.1 °F 26.1 °F 85% 29.90 in 8.0 mi NW 5.8 mph - N/A   Overcast
7:53 PM 30.0 °F 21.1 °F 26.1 °F 85% 29.94 in 8.0 mi WNW 10.4 mph 17.3 mph N/A   Overcast
8:53 PM 30.0 °F 22.4 °F 26.1 °F 85% 29.95 in 8.0 mi WNW 8.1 mph - N/A   Overcast
9:53 PM 30.0 °F 23.2 °F 25.0 °F 82% 29.96 in 9.0 mi WNW 6.9 mph - N/A   Overcast
10:53 PM 30.0 °F 21.7 °F 26.1 °F 85% 29.99 in 9.0 mi WNW 9.2 mph - N/A   Overcast